DRZG weather

Goure Airport
Goure, Zinder Region, Niger

Public forecast

Using degrees Celsius for public forecast. Weather courtesy of forecast.io.

METAR (pilot weather report)

Report is more than 6 hours old.

Retrieved 2010/01/05 05:20 UTC (9 years ago):

DRZG 050520Z 04004KT 3000 DU NSC

TAF (pilot weather forecast)

Forecast is more than 6 hours old.

Closest forecast is Zinder Airport, 76.3 nm (141.2 km) W. Retrieved 2019/04/18 18:21 UTC (10 hours ago):

TAF DRZR 181700Z 1818/1918 04008KT 4500 DU NSC BECMG 1902/1904 2500 TEMPO 1906/1909 1400